| time (UTC) | temp F | wind direction | speed MPH | gust MPH | rain 1hr in | rain 24hr in | rain mn in | humidity % | barometer mb |
| 20260509034326 | 32 | 180 | 0.0 | 2.0 | 0.00 | 0.00 | 0.00 | 85 | 1026.7 |
| 20260509033835 | 31 | 180 | 0.0 | 2.0 | 0.00 | 0.00 | 0.00 | 85 | 1026.8 |
| 20260509033325 | 31 | 180 | 0.0 | 2.0 | 0.00 | 0.00 | 0.00 | 84 | 1026.8 |
| 20260509032825 | 31 | 180 | 0.0 | 1.0 | 0.00 | 0.00 | 0.00 | 84 | 1026.7 |
| 20260509032326 | 32 | 180 | 0.0 | 0.0 | 0.00 | 0.00 | 0.00 | 84 | 1026.7 |
| 20260509031834 | 32 | 180 | 0.0 | 0.0 | 0.00 | 0.00 | 0.00 | 84 | 1026.7 |
| 20260509031401 | 32 | 180 | 0.0 | 0.0 | 0.00 | 0.00 | 0.00 | 84 | 1026.7 |
| 20260509030827 | 32 | 180 | 0.0 | 2.0 | 0.00 | 0.00 | 0.00 | 84 | 1026.7 |
| 20260509030334 | 32 | 180 | 0.0 | 2.0 | 0.00 | 0.00 | 0.00 | 85 | 1026.6 |
| 20260509025840 | 32 | 180 | 1.0 | 2.0 | 0.00 | 0.00 | 0.00 | 89 | 1026.6 |
| 20260509025328 | 32 | 180 | 0.0 | 1.0 | 0.00 | 0.00 | 0.00 | 82 | 1026.6 |
| 20260509024826 | 33 | 180 | 0.0 | 1.0 | 0.00 | 0.00 | 0.00 | 82 | 1026.7 |
| 20260509024326 | 33 | 180 | 0.0 | 1.0 | 0.00 | 0.00 | 0.00 | 82 | 1026.7 |
| 20260509023827 | 33 | 180 | 1.0 | 1.0 | 0.00 | 0.00 | 0.00 | 81 | 1026.7 |
| 20260509023326 | 33 | 180 | 0.0 | 1.0 | 0.00 | 0.00 | 0.00 | 80 | 1026.7 |
| 20260509022826 | 33 | 180 | 0.0 | 1.0 | 0.00 | 0.00 | 0.00 | 80 | 1026.7 |
| 20260509022326 | 33 | 180 | 0.0 | 1.0 | 0.00 | 0.00 | 0.00 | 79 | 1026.8 |
| 20260509021847 | 33 | 180 | 0.0 | 1.0 | 0.00 | 0.00 | 0.00 | 80 | 1026.8 |
| 20260509021327 | 34 | 180 | 0.0 | 1.0 | 0.00 | 0.00 | 0.00 | 79 | 1026.8 |
| 20260509020828 | 34 | 180 | 0.0 | 2.0 | 0.00 | 0.00 | 0.00 | 78 | 1026.9 |
| 20260509020349 | 34 | 180 | 0.0 | 2.0 | 0.00 | 0.00 | 0.00 | 78 | 1026.9 |
| 20260509015828 | 34 | 180 | 1.0 | 2.0 | 0.00 | 0.00 | 0.00 | 79 | 1026.9 |
| 20260509015329 | 34 | 180 | 0.0 | 2.0 | 0.00 | 0.00 | 0.00 | 79 | 1026.9 |
| 20260509014850 | 34 | 180 | 1.0 | 2.0 | 0.00 | 0.00 | 0.00 | 81 | 1026.9 |
| 20260509014329 | 34 | 180 | 1.0 | 2.0 | 0.00 | 0.00 | 0.00 | 80 | 1026.8 |
| 20260509013830 | 34 | 180 | 1.0 | 2.0 | 0.00 | 0.00 | 0.00 | 80 | 1026.8 |
| 20260509013351 | 34 | 180 | 1.0 | 2.0 | 0.00 | 0.00 | 0.00 | 79 | 1026.9 |
| 20260509012831 | 35 | 180 | 1.0 | 2.0 | 0.00 | 0.00 | 0.00 | 78 | 1026.9 |
| 20260509012331 | 35 | 180 | 0.0 | 0.0 | 0.00 | 0.00 | 0.00 | 77 | 1026.9 |
| 20260509011851 | 35 | 180 | 0.0 | 1.0 | 0.00 | 0.00 | 0.00 | 76 | 1026.9 |
| 20260509011331 | 35 | 180 | 0.0 | 1.0 | 0.00 | 0.00 | 0.00 | 76 | 1026.9 |
| 20260509010831 | 35 | 180 | 0.0 | 0.0 | 0.00 | 0.00 | 0.00 | 76 | 1026.9 |
| 20260509010332 | 36 | 180 | 0.0 | 0.0 | 0.00 | 0.00 | 0.00 | 74 | 1026.8 |
| 20260509005832 | 36 | 180 | 0.0 | 1.0 | 0.00 | 0.00 | 0.00 | 75 | 1026.9 |
| 20260509005331 | 36 | 180 | 0.0 | 2.0 | 0.00 | 0.00 | 0.00 | 75 | 1026.9 |
| 20260509004831 | 36 | 180 | 1.0 | 2.0 | 0.00 | 0.00 | 0.00 | 75 | 1026.8 |
| 20260509004330 | 36 | 180 | 0.0 | 2.0 | 0.00 | 0.00 | 0.00 | 74 | 1026.9 |
| 20260509003831 | 36 | 180 | 0.0 | 2.0 | 0.00 | 0.00 | 0.00 | 73 | 1026.9 |
| 20260509003331 | 36 | 180 | 1.0 | 2.0 | 0.00 | 0.00 | 0.00 | 73 | 1026.9 |
| 20260509002832 | 37 | 180 | 0.0 | 1.0 | 0.00 | 0.00 | 0.00 | 71 | 1027.0 |
| 20260509002331 | 37 | 180 | 0.0 | 1.0 | 0.00 | 0.00 | 0.00 | 71 | 1027.0 |
| 20260509001831 | 37 | 180 | 1.0 | 1.0 | 0.00 | 0.00 | 0.00 | 70 | 1026.9 |
| 20260509001332 | 37 | 180 | 0.0 | 1.0 | 0.00 | 0.00 | 0.00 | 69 | 1026.9 |
| 20260509000832 | 38 | 180 | 0.0 | 0.0 | 0.00 | 0.00 | 0.00 | 69 | 1026.9 |
| 20260509000340 | 38 | 180 | 0.0 | 1.0 | 0.00 | 0.00 | 0.00 | 68 | 1026.9 |
| 20260508235827 | 38 | 180 | 0.0 | 2.0 | 0.00 | 0.00 | 0.00 | 68 | 1026.9 |
| 20260508235336 | 38 | 180 | 1.0 | 2.0 | 0.00 | 0.00 | 0.00 | 66 | 1026.9 |
| 20260508234825 | 39 | 180 | 0.0 | 1.0 | 0.00 | 0.00 | 0.00 | 64 | 1026.9 |
| 20260508234353 | 39 | 180 | 0.0 | 1.0 | 0.00 | 0.00 | 0.00 | 64 | 1026.9 |
| 20260508233831 | 39 | 180 | 0.0 | 2.0 | 0.00 | 0.00 | 0.00 | 62 | 1026.9 |
| 20260508233341 | 40 | 180 | 0.0 | 3.0 | 0.00 | 0.00 | 0.00 | 61 | 1026.9 |
| 20260508232828 | 40 | 195 | 0.0 | 2.0 | 0.00 | 0.00 | 0.00 | 59 | 1026.9 |
| 20260508232335 | 40 | 195 | 0.0 | 2.0 | 0.00 | 0.00 | 0.00 | 58 | 1026.9 |
| 20260508231824 | 41 | 194 | 0.0 | 1.0 | 0.00 | 0.00 | 0.00 | 59 | 1026.9 |
| 20260508231332 | 41 | 194 | 0.0 | 2.0 | 0.00 | 0.00 | 0.00 | 55 | 1026.9 |
| 20260508230830 | 42 | 194 | 0.0 | 2.0 | 0.00 | 0.00 | 0.00 | 54 | 1026.9 |
| 20260508230338 | 42 | 190 | 0.0 | 3.0 | 0.00 | 0.00 | 0.00 | 54 | 1026.9 |
| 20260508225824 | 42 | 190 | 0.0 | 4.0 | 0.00 | 0.00 | 0.00 | 54 | 1026.8 |
| 20260508225331 | 42 | 191 | 2.0 | 4.0 | 0.00 | 0.00 | 0.00 | 53 | 1026.8 |
| 20260508224849 | 42 | 205 | 2.0 | 5.0 | 0.00 | 0.00 | 0.00 | 52 | 1026.8 |
| 20260508224335 | 43 | 182 | 2.0 | 4.0 | 0.00 | 0.00 | 0.00 | 51 | 1026.8 |
| 20260508223824 | 43 | 181 | 2.0 | 4.0 | 0.00 | 0.00 | 0.00 | 51 | 1026.7 |
| 20260508223330 | 43 | 173 | 1.0 | 3.0 | 0.00 | 0.00 | 0.00 | 50 | 1026.8 |
| 20260508222836 | 43 | 168 | 1.0 | 2.0 | 0.00 | 0.00 | 0.00 | 49 | 1026.7 |
| 20260508222324 | 44 | 153 | 1.0 | 3.0 | 0.00 | 0.00 | 0.00 | 49 | 1026.7 |
| 20260508221830 | 44 | 153 | 1.0 | 6.0 | 0.00 | 0.00 | 0.00 | 49 | 1026.7 |
| 20260508221330 | 44 | 153 | 2.0 | 6.0 | 0.00 | 0.00 | 0.00 | 49 | 1026.8 |
| 20260508220858 | 45 | 193 | 0.0 | 4.0 | 0.00 | 0.00 | 0.00 | 49 | 1026.8 |
| 20260508220325 | 45 | 196 | 1.0 | 4.0 | 0.00 | 0.00 | 0.00 | 48 | 1026.8 |
| 20260508215832 | 45 | 136 | 2.0 | 6.0 | 0.00 | 0.00 | 0.00 | 47 | 1026.7 |
| 20260508215339 | 45 | 178 | 1.0 | 7.0 | 0.00 | 0.00 | 0.00 | 48 | 1026.7 |
| 20260508214847 | 45 | 150 | 2.0 | 8.0 | 0.00 | 0.00 | 0.00 | 46 | 1026.7 |
| 20260508214332 | 45 | 153 | 3.0 | 8.0 | 0.00 | 0.00 | 0.00 | 46 | 1026.7 |
| 20260508213829 | 45 | 185 | 2.0 | 8.0 | 0.00 | 0.00 | 0.00 | 46 | 1026.7 |
| 20260508213337 | 45 | 126 | 1.0 | 7.0 | 0.00 | 0.00 | 0.00 | 45 | 1026.6 |
| 20260508212824 | 46 | 144 | 2.0 | 7.0 | 0.00 | 0.00 | 0.00 | 45 | 1026.7 |
| 20260508212329 | 46 | 158 | 2.0 | 5.0 | 0.00 | 0.00 | 0.00 | 44 | 1026.6 |
| 20260508211831 | 46 | 132 | 3.0 | 5.0 | 0.00 | 0.00 | 0.00 | 45 | 1026.6 |
| 20260508211331 | 46 | 142 | 3.0 | 10.0 | 0.00 | 0.00 | 0.00 | 43 | 1026.5 |
| 20260508210832 | 46 | 178 | 4.0 | 10.0 | 0.00 | 0.00 | 0.00 | 42 | 1026.5 |
| 20260508210340 | 47 | 155 | 4.0 | 9.0 | 0.00 | 0.00 | 0.00 | 41 | 1026.4 |
| 20260508205829 | 47 | 122 | 4.0 | 9.0 | 0.00 | 0.00 | 0.00 | 41 | 1026.4 |
| 20260508205350 | 47 | 148 | 3.0 | 11.0 | 0.00 | 0.00 | 0.00 | 41 | 1026.3 |
| 20260508204829 | 47 | 144 | 5.0 | 11.0 | 0.00 | 0.00 | 0.00 | 40 | 1026.3 |
| 20260508204351 | 47 | 179 | 4.0 | 8.0 | 0.00 | 0.00 | 0.00 | 40 | 1026.2 |
| 20260508203829 | 47 | 133 | 4.0 | 8.0 | 0.00 | 0.00 | 0.00 | 39 | 1026.2 |
| 20260508203329 | 47 | 153 | 4.0 | 8.0 | 0.00 | 0.00 | 0.00 | 39 | 1026.2 |
| 20260508202831 | 47 | 126 | 4.0 | 7.0 | 0.00 | 0.00 | 0.00 | 39 | 1026.2 |
| 20260508202329 | 47 | 132 | 3.0 | 8.0 | 0.00 | 0.00 | 0.00 | 38 | 1026.3 |
| 20260508201829 | 48 | 134 | 3.0 | 8.0 | 0.00 | 0.00 | 0.00 | 39 | 1026.3 |
| 20260508201358 | 48 | 144 | 3.0 | 9.0 | 0.00 | 0.00 | 0.00 | 39 | 1026.3 |
| 20260508200846 | 48 | 159 | 4.0 | 9.0 | 0.00 | 0.00 | 0.00 | 37 | 1026.3 |
| 20260508200334 | 48 | 148 | 2.0 | 9.0 | 0.00 | 0.00 | 0.00 | 37 | 1026.2 |
| 20260508195837 | 48 | 164 | 5.0 | 8.0 | 0.00 | 0.00 | 0.00 | 36 | 1026.1 |
| 20260508195328 | 49 | 149 | 3.0 | 8.0 | 0.00 | 0.00 | 0.00 | 36 | 1026.1 |
| 20260508194844 | 49 | 165 | 3.0 | 8.0 | 0.00 | 0.00 | 0.00 | 36 | 1026.1 |
| 20260508194332 | 49 | 139 | 3.0 | 5.0 | 0.00 | 0.00 | 0.00 | 37 | 1026.1 |
| 20260508193824 | 49 | 175 | 2.0 | 6.0 | 0.00 | 0.00 | 0.00 | 35 | 1026.0 |
| 20260508193333 | 50 | 159 | 3.0 | 8.0 | 0.00 | 0.00 | 0.00 | 35 | 1026.0 |
| 20260508192839 | 50 | 135 | 3.0 | 8.0 | 0.00 | 0.00 | 0.00 | 34 | 1026.0 |
| 20260508192328 | 50 | 133 | 3.0 | 11.0 | 0.00 | 0.00 | 0.00 | 34 | 1026.0 |
| 20260508191856 | 50 | 131 | 4.0 | 11.0 | 0.00 | 0.00 | 0.00 | 33 | 1026.0 |
| 20260508191324 | 51 | 160 | 5.0 | 10.0 | 0.00 | 0.00 | 0.00 | 33 | 1025.9 |
| 20260508190852 | 51 | 144 | 4.0 | 9.0 | 0.00 | 0.00 | 0.00 | 34 | 1025.9 |
| 20260508190348 | 51 | 172 | 5.0 | 9.0 | 0.00 | 0.00 | 0.00 | 34 | 1025.9 |
| 20260508185827 | 51 | 142 | 4.0 | 9.0 | 0.00 | 0.00 | 0.00 | 34 | 1025.9 |
| 20260508185325 | 52 | 136 | 3.0 | 8.0 | 0.00 | 0.00 | 0.00 | 34 | 1025.9 |
| 20260508184833 | 52 | 171 | 4.0 | 8.0 | 0.00 | 0.00 | 0.00 | 34 | 1025.9 |
| 20260508184359 | 52 | 155 | 4.0 | 9.0 | 0.00 | 0.00 | 0.00 | 35 | 1025.9 |
| 20260508183824 | 53 | 171 | 3.0 | 9.0 | 0.00 | 0.00 | 0.00 | 35 | 1025.9 |
| 20260508183355 | 53 | 153 | 4.0 | 9.0 | 0.00 | 0.00 | 0.00 | 36 | 1025.8 |
| 20260508182840 | 53 | 148 | 6.0 | 9.0 | 0.00 | 0.00 | 0.00 | 36 | 1025.8 |
| 20260508182326 | 53 | 137 | 4.0 | 9.0 | 0.00 | 0.00 | 0.00 | 38 | 1025.7 |
| 20260508181827 | 54 | 136 | 2.0 | 11.0 | 0.00 | 0.00 | 0.00 | 38 | 1025.7 |
| 20260508181325 | 54 | 191 | 3.0 | 6.0 | 0.00 | 0.00 | 0.00 | 37 | 1025.7 |
| 20260508180826 | 54 | 133 | 3.0 | 6.0 | 0.00 | 0.00 | 0.00 | 36 | 1025.6 |
| 20260508180326 | 55 | 182 | 3.0 | 6.0 | 0.00 | 0.00 | 0.00 | 35 | 1025.6 |
| 20260508175824 | 55 | 180 | 2.0 | 10.0 | 0.00 | 0.00 | 0.00 | 35 | 1025.5 |
| 20260508175333 | 55 | 149 | 4.0 | 10.0 | 0.00 | 0.00 | 0.00 | 33 | 1025.4 |
| 20260508174841 | 55 | 188 | 3.0 | 10.0 | 0.00 | 0.00 | 0.00 | 33 | 1025.3 |
| 20260508174328 | 55 | 155 | 3.0 | 10.0 | 0.00 | 0.00 | 0.00 | 32 | 1025.3 |
| 20260508173836 | 56 | 127 | 5.0 | 14.0 | 0.00 | 0.00 | 0.00 | 30 | 1025.3 |
| 20260508173325 | 56 | 126 | 8.0 | 14.0 | 0.00 | 0.00 | 0.00 | 32 | 1025.3 |
| 20260508172825 | 56 | 144 | 7.0 | 14.0 | 0.00 | 0.00 | 0.00 | 31 | 1025.4 |
| 20260508172326 | 56 | 148 | 5.0 | 14.0 | 0.00 | 0.00 | 0.00 | 30 | 1025.3 |
| 20260508171825 | 56 | 160 | 6.0 | 11.0 | 0.00 | 0.00 | 0.00 | 31 | 1025.3 |
| 20260508171325 | 57 | 156 | 5.0 | 9.0 | 0.00 | 0.00 | 0.00 | 30 | 1025.3 |
| 20260508170825 | 57 | 144 | 4.0 | 12.0 | 0.00 | 0.00 | 0.00 | 31 | 1025.3 |
| 20260508170327 | 57 | 144 | 4.0 | 15.0 | 0.00 | 0.00 | 0.00 | 31 | 1025.4 |
| 20260508165828 | 57 | 198 | 5.0 | 15.0 | 0.00 | 0.00 | 0.00 | 30 | 1025.3 |
| 20260508165336 | 57 | 196 | 7.0 | 12.0 | 0.00 | 0.00 | 0.00 | 29 | 1025.3 |
| 20260508164825 | 58 | 169 | 8.0 | 18.0 | 0.00 | 0.00 | 0.00 | 29 | 1025.2 |
| 20260508164345 | 58 | 146 | 6.0 | 18.0 | 0.00 | 0.00 | 0.00 | 29 | 1025.2 |
| 20260508163825 | 58 | 153 | 7.0 | 15.0 | 0.00 | 0.00 | 0.00 | 30 | 1025.2 |
| 20260508163325 | 58 | 147 | 7.0 | 15.0 | 0.00 | 0.00 | 0.00 | 29 | 1025.1 |
| 20260508162826 | 58 | 172 | 9.0 | 19.0 | 0.00 | 0.00 | 0.00 | 29 | 1025.1 |
| 20260508162327 | 59 | 121 | 8.0 | 12.0 | 0.00 | 0.00 | 0.00 | 28 | 1025.1 |
| 20260508161835 | 59 | 146 | 7.0 | 14.0 | 0.00 | 0.00 | 0.00 | 29 | 1025.1 |
| 20260508161324 | 59 | 146 | 5.0 | 10.0 | 0.00 | 0.00 | 0.00 | 28 | 1025.1 |
| 20260508160824 | 59 | 190 | 8.0 | 13.0 | 0.00 | 0.00 | 0.00 | 28 | 1025.0 |
| 20260508160333 | 59 | 164 | 5.0 | 13.0 | 0.00 | 0.00 | 0.00 | 30 | 1025.0 |
| 20260508155840 | 59 | 142 | 8.0 | 14.0 | 0.00 | 0.00 | 0.00 | 28 | 1025.0 |
| 20260508155349 | 59 | 173 | 7.0 | 16.0 | 0.00 | 0.00 | 0.00 | 29 | 1025.1 |
| 20260508154836 | 59 | 132 | 9.0 | 16.0 | 0.00 | 0.00 | 0.00 | 28 | 1025.0 |
| 20260508154324 | 59 | 187 | 7.0 | 12.0 | 0.00 | 0.00 | 0.00 | 29 | 1025.0 |
| 20260508153825 | 59 | 194 | 8.0 | 12.0 | 0.00 | 0.00 | 0.00 | 31 | 1025.0 |
| 20260508153346 | 60 | 136 | 7.0 | 14.0 | 0.00 | 0.00 | 0.00 | 29 | 1025.0 |
| 20260508152825 | 60 | 120 | 8.0 | 16.0 | 0.00 | 0.00 | 0.00 | 29 | 1025.0 |
| 20260508152326 | 60 | 175 | 11.0 | 16.0 | 0.00 | 0.00 | 0.00 | 30 | 1024.9 |
| 20260508151846 | 60 | 107 | 8.0 | 14.0 | 0.00 | 0.00 | 0.00 | 29 | 1025.0 |
| 20260508151354 | 61 | 151 | 7.0 | 12.0 | 0.00 | 0.00 | 0.00 | 31 | 1025.0 |
| 20260508150841 | 60 | 182 | 6.0 | 17.0 | 0.00 | 0.00 | 0.00 | 31 | 1024.9 |
| 20260508150350 | 61 | 169 | 9.0 | 17.0 | 0.00 | 0.00 | 0.00 | 30 | 1025.0 |
| 20260508145830 | 61 | 134 | 9.0 | 13.0 | 0.00 | 0.00 | 0.00 | 29 | 1025.0 |
| 20260508145330 | 61 | 144 | 9.0 | 14.0 | 0.00 | 0.00 | 0.00 | 30 | 1025.0 |
| 20260508144831 | 61 | 143 | 9.0 | 15.0 | 0.00 | 0.00 | 0.00 | 30 | 1025.0 |
| 20260508144330 | 61 | 128 | 6.0 | 15.0 | 0.00 | 0.00 | 0.00 | 27 | 1024.9 |
| 20260508143833 | 62 | 113 | 7.0 | 15.0 | 0.00 | 0.00 | 0.00 | 28 | 1025.0 |
| 20260508143341 | 62 | 132 | 6.0 | 13.0 | 0.00 | 0.00 | 0.00 | 28 | 1025.0 |
| 20260508142829 | 62 | 149 | 5.0 | 17.0 | 0.00 | 0.00 | 0.00 | 30 | 1025.0 |
| 20260508142329 | 62 | 129 | 10.0 | 18.0 | 0.00 | 0.00 | 0.00 | 28 | 1024.8 |
| 20260508141850 | 62 | 136 | 5.0 | 15.0 | 0.00 | 0.00 | 0.00 | 31 | 1024.9 |
| 20260508141329 | 63 | 141 | 9.0 | 15.0 | 0.00 | 0.00 | 0.00 | 28 | 1024.9 |
| 20260508140830 | 63 | 153 | 8.0 | 12.0 | 0.00 | 0.00 | 0.00 | 30 | 1024.9 |
| 20260508140351 | 63 | 140 | 8.0 | 15.0 | 0.00 | 0.00 | 0.00 | 29 | 1024.9 |
| 20260508135831 | 63 | 146 | 8.0 | 15.0 | 0.00 | 0.00 | 0.00 | 29 | 1024.9 |
| 20260508135330 | 63 | 207 | 6.0 | 13.0 | 0.00 | 0.00 | 0.00 | 29 | 1024.9 |
| 20260508134830 | 63 | 196 | 6.0 | 11.0 | 0.00 | 0.00 | 0.00 | 30 | 1024.9 |
| 20260508134330 | 63 | 196 | 6.0 | 11.0 | 0.00 | 0.00 | 0.00 | 28 | 1024.9 |
| 20260508133832 | 63 | 191 | 1.0 | 14.0 | 0.00 | 0.00 | 0.00 | 29 | 1024.9 |
| 20260508133333 | 63 | 182 | 5.0 | 14.0 | 0.00 | 0.00 | 0.00 | 28 | 1025.1 |
| 20260508132839 | 63 | 138 | 5.0 | 14.0 | 0.00 | 0.00 | 0.00 | 32 | 1025.0 |
| 20260508132328 | 63 | 200 | 6.0 | 11.0 | 0.00 | 0.00 | 0.00 | 27 | 1025.1 |
| 20260508131829 | 63 | 198 | 4.0 | 11.0 | 0.00 | 0.00 | 0.00 | 29 | 1025.0 |
| 20260508131329 | 63 | 134 | 6.0 | 11.0 | 0.00 | 0.00 | 0.00 | 28 | 1025.2 |
| 20260508130829 | 64 | 156 | 7.0 | 13.0 | 0.00 | 0.00 | 0.00 | 26 | 1025.1 |
| 20260508130328 | 64 | 160 | 6.0 | 13.0 | 0.00 | 0.00 | 0.00 | 28 | 1025.2 |
| 20260508125829 | 64 | 279 | 4.0 | 11.0 | 0.00 | 0.00 | 0.00 | 31 | 1025.2 |
| 20260508125328 | 63 | 193 | 4.0 | 11.0 | 0.00 | 0.00 | 0.00 | 29 | 1025.2 |
| 20260508124830 | 63 | 195 | 6.0 | 10.0 | 0.00 | 0.00 | 0.00 | 29 | 1025.2 |
| 20260508124330 | 63 | 130 | 7.0 | 12.0 | 0.00 | 0.00 | 0.00 | 32 | 1025.2 |
| 20260508123831 | 63 | 135 | 4.0 | 13.0 | 0.00 | 0.00 | 0.00 | 30 | 1025.2 |
| 20260508123339 | 63 | 121 | 7.0 | 15.0 | 0.00 | 0.00 | 0.00 | 32 | 1025.2 |
| 20260508122828 | 63 | 148 | 8.0 | 14.0 | 0.00 | 0.00 | 0.00 | 32 | 1025.2 |
| 20260508122328 | 63 | 134 | 8.0 | 16.0 | 0.00 | 0.00 | 0.00 | 28 | 1025.2 |
| 20260508121849 | 64 | 142 | 8.0 | 16.0 | 0.00 | 0.00 | 0.00 | 29 | 1025.2 |
| 20260508121329 | 63 | 189 | 5.0 | 13.0 | 0.00 | 0.00 | 0.00 | 30 | 1025.3 |
| 20260508120830 | 63 | 156 | 8.0 | 17.0 | 0.00 | 0.00 | 0.00 | 30 | 1025.3 |
| 20260508120339 | 64 | 157 | 8.0 | 15.0 | 0.00 | 0.00 | 0.00 | 30 | 1025.3 |
| 20260508115827 | 64 | 109 | 9.0 | 13.0 | 0.00 | 0.00 | 0.00 | 32 | 1025.3 |
| 20260508115336 | 63 | 110 | 6.0 | 12.0 | 0.00 | 0.00 | 0.00 | 31 | 1025.2 |
| 20260508114824 | 63 | 156 | 6.0 | 12.0 | 0.00 | 0.00 | 0.00 | 33 | 1025.2 |
| 20260508114353 | 63 | 159 | 6.0 | 14.0 | 0.00 | 0.00 | 0.00 | 34 | 1025.2 |
| 20260508113839 | 63 | 156 | 7.0 | 14.0 | 0.00 | 0.00 | 0.00 | 34 | 1025.1 |
| 20260508113328 | 63 | 95 | 6.0 | 16.0 | 0.00 | 0.00 | 0.00 | 33 | 1025.1 |
| 20260508112856 | 63 | 106 | 9.0 | 16.0 | 0.00 | 0.00 | 0.00 | 31 | 1025.1 |
| 20260508112324 | 63 | 149 | 8.0 | 16.0 | 0.00 | 0.00 | 0.00 | 31 | 1025.2 |
| 20260508111832 | 63 | 168 | 7.0 | 12.0 | 0.00 | 0.00 | 0.00 | 32 | 1025.2 |
| 20260508111359 | 63 | 180 | 5.0 | 13.0 | 0.00 | 0.00 | 0.00 | 32 | 1025.2 |
| 20260508110828 | 63 | 112 | 8.0 | 14.0 | 0.00 | 0.00 | 0.00 | 33 | 1025.2 |
| 20260508110330 | 63 | 95 | 8.0 | 14.0 | 0.00 | 0.00 | 0.00 | 34 | 1025.2 |
| 20260508105830 | 63 | 156 | 6.0 | 13.0 | 0.00 | 0.00 | 0.00 | 35 | 1025.2 |
| 20260508105330 | 63 | 148 | 8.0 | 14.0 | 0.00 | 0.00 | 0.00 | 32 | 1025.3 |
| 20260508104830 | 63 | 103 | 8.0 | 14.0 | 0.00 | 0.00 | 0.00 | 32 | 1025.2 |
| 20260508104330 | 63 | 167 | 7.0 | 13.0 | 0.00 | 0.00 | 0.00 | 37 | 1025.3 |
| 20260508103851 | 63 | 133 | 7.0 | 13.0 | 0.00 | 0.00 | 0.00 | 34 | 1025.2 |
| 20260508103351 | 63 | 129 | 7.0 | 14.0 | 0.00 | 0.00 | 0.00 | 34 | 1025.3 |
| 20260508102829 | 62 | 202 | 6.0 | 14.0 | 0.00 | 0.00 | 0.00 | 33 | 1025.3 |
| 20260508102330 | 63 | 157 | 7.0 | 17.0 | 0.00 | 0.00 | 0.00 | 33 | 1025.3 |
| 20260508101830 | 63 | 109 | 10.0 | 17.0 | 0.00 | 0.00 | 0.00 | 33 | 1025.2 |
| 20260508101330 | 63 | 181 | 9.0 | 15.0 | 0.00 | 0.00 | 0.00 | 34 | 1025.3 |
| 20260508100830 | 63 | 153 | 6.0 | 14.0 | 0.00 | 0.00 | 0.00 | 32 | 1025.3 |
| 20260508100331 | 63 | 144 | 7.0 | 14.0 | 0.00 | 0.00 | 0.00 | 33 | 1025.3 |
| 20260508095839 | 63 | 172 | 5.0 | 13.0 | 0.00 | 0.00 | 0.00 | 32 | 1025.3 |
| 20260508095329 | 62 | 132 | 6.0 | 13.0 | 0.00 | 0.00 | 0.00 | 35 | 1025.2 |
| 20260508094829 | 62 | 200 | 8.0 | 14.0 | 0.00 | 0.00 | 0.00 | 31 | 1025.3 |
| 20260508094330 | 62 | 123 | 6.0 | 10.0 | 0.00 | 0.00 | 0.00 | 31 | 1025.2 |
| 20260508093851 | 63 | 107 | 6.0 | 15.0 | 0.00 | 0.00 | 0.00 | 31 | 1025.3 |
| 20260508093331 | 63 | 154 | 10.0 | 14.0 | 0.00 | 0.00 | 0.00 | 28 | 1025.3 |
| 20260508092846 | 64 | 188 | 7.0 | 13.0 | 0.00 | 0.00 | 0.00 | 31 | 1025.3 |
| 20260508092325 | 63 | 161 | 6.0 | 14.0 | 0.00 | 0.00 | 0.00 | 31 | 1025.3 |
| 20260508091825 | 63 | 224 | 5.0 | 13.0 | 0.00 | 0.00 | 0.00 | 30 | 1025.2 |
| 20260508091324 | 62 | 142 | 6.0 | 14.0 | 0.00 | 0.00 | 0.00 | 30 | 1025.2 |
| 20260508090825 | 62 | 135 | 7.0 | 14.0 | 0.00 | 0.00 | 0.00 | 31 | 1025.2 |
| 20260508090346 | 63 | 136 | 8.0 | 13.0 | 0.00 | 0.00 | 0.00 | 30 | 1025.2 |
| 20260508085826 | 63 | 112 | 6.0 | 13.0 | 0.00 | 0.00 | 0.00 | 31 | 1025.2 |
| 20260508085327 | 63 | 202 | 7.0 | 12.0 | 0.00 | 0.00 | 0.00 | 29 | 1025.2 |
| 20260508084827 | 63 | 175 | 6.0 | 13.0 | 0.00 | 0.00 | 0.00 | 30 | 1025.3 |
| 20260508084327 | 63 | 195 | 6.0 | 13.0 | 0.00 | 0.00 | 0.00 | 28 | 1025.3 |
| 20260508083827 | 63 | 194 | 3.0 | 13.0 | 0.00 | 0.00 | 0.00 | 33 | 1025.3 |
| 20260508083329 | 62 | 198 | 8.0 | 13.0 | 0.00 | 0.00 | 0.00 | 29 | 1025.3 |
| 20260508082830 | 62 | 174 | 4.0 | 9.0 | 0.00 | 0.00 | 0.00 | 32 | 1025.2 |
| 20260508082329 | 62 | 181 | 7.0 | 10.0 | 0.00 | 0.00 | 0.00 | 35 | 1025.2 |
| 20260508081831 | 62 | 202 | 4.0 | 10.0 | 0.00 | 0.00 | 0.00 | 36 | 1025.1 |
| 20260508081352 | 62 | 151 | 8.0 | 11.0 | 0.00 | 0.00 | 0.00 | 36 | 1025.1 |
| 20260508080830 | 61 | 126 | 4.0 | 9.0 | 0.00 | 0.00 | 0.00 | 38 | 1025.1 |
| 20260508080330 | 61 | 178 | 5.0 | 14.0 | 0.00 | 0.00 | 0.00 | 34 | 1025.1 |
| 20260508075837 | 60 | 199 | 6.0 | 15.0 | 0.00 | 0.00 | 0.00 | 35 | 1025.1 |
| 20260508075325 | 60 | 182 | 5.0 | 15.0 | 0.00 | 0.00 | 0.00 | 37 | 1025.2 |
| 20260508074832 | 60 | 204 | 7.0 | 15.0 | 0.00 | 0.00 | 0.00 | 37 | 1025.2 |
| 20260508074353 | 60 | 152 | 6.0 | 11.0 | 0.00 | 0.00 | 0.00 | 38 | 1025.1 |
| 20260508073831 | 59 | 160 | 5.0 | 10.0 | 0.00 | 0.00 | 0.00 | 40 | 1025.0 |
| 20260508073400 | 59 | 194 | 5.0 | 13.0 | 0.00 | 0.00 | 0.00 | 41 | 1025.1 |
| 20260508072829 | 58 | 213 | 7.0 | 13.0 | 0.00 | 0.00 | 0.00 | 40 | 1025.0 |
| 20260508072330 | 58 | 179 | 6.0 | 13.0 | 0.00 | 0.00 | 0.00 | 42 | 1025.0 |
| 20260508071831 | 58 | 202 | 4.0 | 11.0 | 0.00 | 0.00 | 0.00 | 43 | 1024.9 |
| 20260508071331 | 57 | 134 | 5.0 | 11.0 | 0.00 | 0.00 | 0.00 | 42 | 1024.9 |
| 20260508070852 | 56 | 156 | 5.0 | 10.0 | 0.00 | 0.00 | 0.00 | 43 | 1024.9 |
| 20260508070331 | 56 | 173 | 5.0 | 10.0 | 0.00 | 0.00 | 0.00 | 45 | 1024.8 |
| 20260508065832 | 55 | 193 | 4.0 | 10.0 | 0.00 | 0.00 | 0.00 | 44 | 1024.7 |
| 20260508065401 | 55 | 192 | 6.0 | 10.0 | 0.00 | 0.00 | 0.00 | 44 | 1024.7 |
| 20260508064828 | 54 | 184 | 5.0 | 9.0 | 0.00 | 0.00 | 0.00 | 45 | 1024.6 |
| 20260508064329 | 54 | 150 | 5.0 | 10.0 | 0.00 | 0.00 | 0.00 | 45 | 1024.6 |
| 20260508063830 | 54 | 167 | 5.0 | 10.0 | 0.00 | 0.00 | 0.00 | 44 | 1024.5 |
| 20260508063350 | 53 | 157 | 5.0 | 11.0 | 0.00 | 0.00 | 0.00 | 47 | 1024.5 |
| 20260508062830 | 53 | 210 | 5.0 | 10.0 | 0.00 | 0.00 | 0.00 | 48 | 1024.4 |
| 20260508062330 | 53 | 207 | 5.0 | 7.0 | 0.00 | 0.00 | 0.00 | 48 | 1024.4 |
| 20260508061830 | 52 | 190 | 4.0 | 8.0 | 0.00 | 0.00 | 0.00 | 48 | 1024.4 |
| 20260508061330 | 52 | 150 | 4.0 | 10.0 | 0.00 | 0.00 | 0.00 | 48 | 1024.3 |
| 20260508060830 | 51 | 189 | 5.0 | 10.0 | 0.00 | 0.00 | 0.00 | 47 | 1024.3 |
| 20260508060331 | 51 | 173 | 3.0 | 6.0 | 0.00 | 0.00 | 0.00 | 50 | 1024.2 |
| 20260508055831 | 50 | 159 | 3.0 | 7.0 | 0.00 | 0.00 | 0.00 | 50 | 1024.1 |
| 20260508055333 | 50 | 152 | 2.0 | 9.0 | 0.00 | 0.00 | 0.00 | 51 | 1024.0 |
| 20260508054830 | 49 | 189 | 5.0 | 10.0 | 0.00 | 0.00 | 0.00 | 50 | 1024.1 |
| 20260508054332 | 49 | 187 | 4.0 | 11.0 | 0.00 | 0.00 | 0.00 | 52 | 1024.0 |
| 20260508053831 | 48 | 192 | 4.0 | 7.0 | 0.00 | 0.00 | 0.00 | 54 | 1024.0 |
| 20260508053327 | 48 | 191 | 3.0 | 6.0 | 0.00 | 0.00 | 0.00 | 56 | 1024.0 |
| 20260508052854 | 47 | 175 | 3.0 | 6.0 | 0.00 | 0.00 | 0.00 | 57 | 1023.9 |
| 20260508052341 | 47 | 189 | 3.0 | 9.0 | 0.00 | 0.00 | 0.00 | 56 | 1023.8 |
| 20260508051850 | 47 | 138 | 2.0 | 7.0 | 0.00 | 0.00 | 0.00 | 56 | 1023.8 |
| 20260508051357 | 47 | 164 | 4.0 | 8.0 | 0.00 | 0.00 | 0.00 | 56 | 1023.8 |
| 20260508050824 | 46 | 148 | 4.0 | 8.0 | 0.00 | 0.00 | 0.00 | 56 | 1023.7 |
| 20260508050325 | 46 | 134 | 2.0 | 6.0 | 0.00 | 0.00 | 0.00 | 57 | 1023.6 |
| 20260508045825 | 46 | 115 | 3.0 | 9.0 | 0.00 | 0.00 | 0.00 | 56 | 1023.6 |
| 20260508045333 | 46 | 180 | 3.0 | 9.0 | 0.00 | 0.00 | 0.00 | 56 | 1023.5 |
| 20260508044842 | 45 | 159 | 4.0 | 9.0 | 0.00 | 0.00 | 0.00 | 56 | 1023.4 |
| 20260508044329 | 45 | 149 | 4.0 | 8.0 | 0.00 | 0.00 | 0.00 | 56 | 1023.3 |
| 20260508043850 | 45 | 153 | 4.0 | 8.0 | 0.00 | 0.00 | 0.00 | 57 | 1023.3 |
| 20260508043330 | 44 | 149 | 3.0 | 7.0 | 0.00 | 0.00 | 0.00 | 58 | 1023.3 |
| 20260508042829 | 44 | 184 | 3.0 | 6.0 | 0.00 | 0.00 | 0.00 | 58 | 1023.2 |
| 20260508042330 | 43 | 180 | 2.0 | 8.0 | 0.00 | 0.00 | 0.00 | 60 | 1023.1 |
| 20260508041830 | 43 | 209 | 3.0 | 10.0 | 0.00 | 0.00 | 0.00 | 60 | 1023.2 |
| 20260508041329 | 42 | 196 | 5.0 | 10.0 | 0.00 | 0.00 | 0.00 | 61 | 1023.2 |
| 20260508040831 | 42 | 178 | 3.0 | 7.0 | 0.00 | 0.00 | 0.00 | 62 | 1023.3 |
| 20260508040331 | 41 | 199 | 5.0 | 9.0 | 0.00 | 0.00 | 0.00 | 62 | 1023.3 |
| 20260508035852 | 40 | 194 | 4.0 | 6.0 | 0.00 | 0.00 | 0.00 | 64 | 1023.3 |
| 20260508035331 | 39 | 202 | 2.0 | 6.0 | 0.00 | 0.00 | 0.00 | 66 | 1023.3 |
| 20260508034832 | 38 | 141 | 2.0 | 5.0 | 0.00 | 0.00 | 0.00 | 68 | 1023.3 |